Racecast

SEC Jamboree #3

Hudson Mills Metropark - OFFICIAL · 5000m · Girls · Compiled · MI

296 runners from 3 divisions

These divisions were run separately. This is how their times compare, not how they finished — the places and scores below were never contested.

View full meet →

Team scores

Place Team Points 12345 67
1 Saline (MI) 34 1 3 7 8 15 16 17
2 Chelsea (MI) 73 4 9 11 21 28 40 46
3 Temperance Bedford (MI) 109 10 14 22 24 39 52 56
4 Ann Arbor Pioneer (MI) 129 20 23 27 29 30 31 42
5 Monroe (MI) 154 12 19 33 36 54 62 63
6 Dexter (MI) 164 6 25 38 45 50 51 53
7 Ann Arbor Skyline (MI) 178 18 26 43 44 47 49 57
8 Adrian (MI) 202 13 34 35 59 61 64 71
9 Tecumseh (MI) 204 2 41 48 55 58 60 69
10 Ann Arbor Huron (MI) 207 5 32 37 66 67 68 70
11 Ypsilanti Lincoln (MI) 359 65 72 73 74 75 76 77

Results

Place Athlete Grade School Time Rating Points Actual race
1 Gillian Walter 12 Saline (MI) 1 19:17.9 127.0 1 1
2 Christina Sawyer 11 Tecumseh (MI) 1 19:26.1 126.1 2 1
3 Hannah Cummings 12 Saline (MI) 2 19:27.5 126.0 3 2
4 Jesse Jacobusse 11 Chelsea (MI) 1 19:40.7 124.6 4 2
5 Callie Hastie 9 Ann Arbor Huron (MI) 1 19:41.0 124.6 5 3
6 Danielle Waidley 10 Dexter (MI) 1 19:41.1 124.5 6 3
7 Regan Smith 12 Saline (MI) 3 19:41.7 124.5 7 4
8 Jessi Larson 10 Saline (MI) 4 19:49.2 123.7 8 5
9 Karana Wickens 12 Chelsea (MI) 2 19:54.4 123.2 9 4
10 Alli Smith 9 Temperance Bedford (MI) 1 20:01.0 122.5 10 6
11 Allison Hughes 9 Chelsea (MI) 3 20:05.3 122.0 11 5
12 Kathryn Thornton 9 Monroe (CA) 1 20:12.4 121.3 12 7
13 Emma Dempsey 12 Adrian (MI) 1 20:12.8 121.3 13 6
14 Roma Lucarelli 12 Temperance Bedford (MI) 2 20:17.1 120.9 14 8
15 Holly Treber 12 Saline (MI) 5 20:18.1 120.8 15 9
16 Alexa Reyst 12 Saline (MI) 6 20:19.7 120.6 16 1
17 Haleigh Cummings 12 Saline (MI) 7 20:20.8 120.5 17 2
18 Lydia Gilbert 10 Ann Arbor Skyline (MI) 1 20:21.4 120.4 18 10
19 Natalie Maas 12 Monroe (CA) 2 20:23.0 120.3 19 11
20 Anne Forsyth 10 Ann Arbor Pioneer (MI) 1 20:25.2 120.1 20 12
21 Caroline Hirth 10 Chelsea (MI) 4 20:28.7 119.7 21 7
22 Emma Cummings 9 Saline (MI) 8 20:28.8 119.7 13
23 Halie Schultz 11 Temperance Bedford (MI) 3 20:29.7 119.6 22 14
24 Danielle Fillmore 12 Saline (MI) 9 20:30.3 119.6 15
25 Katelyn Norman 9 Saline (MI) 10 20:31.9 119.4 3
26 Gillian Hartley 11 Saline (MI) 11 20:34.1 119.2 4
27 Carrie Duerksen 11 Ann Arbor Pioneer (MI) 2 20:34.5 119.2 23 5
28 Morgan McCormick 12 Temperance Bedford (MI) 4 20:37.1 118.9 24 16
29 Jordan McGinnis 11 Dexter (MI) 2 20:42.3 118.4 25 8
30 Kayla Fortino 9 Saline (MI) 12 20:43.2 118.3 6
31 Chrysanthe Patselas 10 Ann Arbor Skyline (MI) 2 20:44.5 118.2 26 17
32 Elizabeth Kos 10 Ann Arbor Pioneer (MI) 3 20:45.2 118.1 27 18
33 Sydnee Liedel 9 Chelsea (MI) 5 20:46.8 118.0 28 9
34 Mallory Dawes 9 Ann Arbor Pioneer (MI) 4 20:54.6 117.2 29 19
35 Ella Ryan 9 Ann Arbor Pioneer (MI) 5 20:54.9 117.2 30 20
36 Emily Rennich 9 Ann Arbor Pioneer (MI) 6 20:55.3 117.2 31 7
37 Olivia Cell 12 Ann Arbor Huron (MI) 2 21:02.0 116.6 32 21
38 Sidney Towalski 12 Monroe (CA) 3 21:03.1 116.5 33 22
39 Riley Zick 10 Adrian (MI) 2 21:04.2 116.3 34 10
40 Kyra Ross 12 Saline (MI) 13 21:06.6 116.1 8
41 Caroline Lewis 9 Adrian (MI) 3 21:08.2 116.0 35 11
42 Autumn Green 11 Monroe (CA) 4 21:09.7 115.8 36 23
43 Kristen Hayden 12 Ann Arbor Huron (MI) 3 21:10.2 115.8 37 24
44 Lindsey Hayter 11 Dexter (MI) 3 21:10.5 115.8 38 12
45 Amber Wiederhold 11 Temperance Bedford (MI) 5 21:10.8 115.8 39 25
46 Natalie Gofton 9 Chelsea (MI) 6 21:11.9 115.7 40 9
47 Katie Clark 10 Saline (MI) 14 21:13.1 115.5 10
48 Emily Alderman 11 Tecumseh (MI) 2 21:13.5 115.5 41 13
49 Katherine Fedoronko 12 Saline (MI) 15 21:15.4 115.3 11
50 Abigail Wilson 10 Saline (MI) 16 21:17.6 115.1 12
51 Charlotte Ramser 11 Ann Arbor Pioneer (MI) 7 21:20.8 114.8 42 26
52 Sydney Dawes 11 Ann Arbor Pioneer (MI) 8 21:23.5 114.6 27
53 Leah Hyne 10 Saline (MI) 17 21:24.8 114.5 13
54 Micaela Keller 12 Ann Arbor Skyline (MI) 3 21:26.1 114.4 43 28
55 Arie Park 11 Ann Arbor Skyline (MI) 4 21:31.1 113.9 44 29
56 Megyn Scafasci 9 Dexter (MI) 4 21:31.2 113.9 45 14
57 Mallory Castor 10 Saline (MI) 18 21:31.9 113.9 14
58 Ellie Doman 11 Chelsea (MI) 7 21:33.9 113.7 46 15
59 Mackenzie Dalton 12 Ann Arbor Pioneer (MI) 9 21:34.2 113.7 16
60 Jacqueline Taylor 9 Chelsea (MI) 8 21:34.5 113.6 15
61 Jacalyn Overdier 11 Ann Arbor Pioneer (MI) 10 21:35.7 113.5 30
62 Rebecca Cantrell 10 Saline (MI) 19 21:35.8 113.5 17
63 Emily Allison 12 Ann Arbor Skyline (MI) 5 21:40.8 113.1 47 31
64 Katie Selenko 9 Tecumseh (MI) 3 21:40.9 113.1 48 16
65 Lily Peck 9 Ann Arbor Skyline (MI) 6 21:44.7 112.7 49 32
66 Julia Bell 11 Dexter (MI) 5 21:50.7 112.2 50 17
67 Abby McLean 9 Dexter (MI) 6 21:51.9 112.1 51 18
68 Phoebe Varney 12 Temperance Bedford (MI) 6 21:53.1 112.0 52 33
69 Anna Varitek 9 Dexter (MI) 7 21:53.8 112.0 53 19
70 Elisabeth LaPrad 10 Monroe (CA) 5 21:57.1 54 34
71 Juliana Romero 10 Saline (MI) 20 22:00.2 111.4 18
72 Erin Rutledge 9 Tecumseh (MI) 4 22:00.7 111.4 55 20
73 Regan Barsch 11 Saline (MI) 21 22:03.4 111.2 19
74 Margy Hunter 10 Saline (MI) 22 22:06.8 110.9 20
75 Katherine Riles 11 Ann Arbor Pioneer (MI) 11 22:07.4 110.8 21
76 Olivia Cook 10 Temperance Bedford (MI) 7 22:09.5 110.6 56 22
77 Nyeli Kratz 9 Ann Arbor Skyline (MI) 7 22:10.1 110.6 57 35
78 Rachel Stockford 9 Tecumseh (MI) 5 22:11.2 110.5 58 21
79 Caroline Darr 12 Dexter (MI) 8 22:13.5 110.3 23
80 Yasmine Lajimi 10 Saline (MI) 23 22:17.9 109.9 24
81 Alysa Tillman 12 Temperance Bedford (MI) 8 22:19.4 109.8 25
82 Victoria Miller 10 Ann Arbor Skyline (MI) 8 22:20.4 109.7 26
83 Alexa Stern 9 Saline (MI) 24 22:21.1 109.7 27
84 Sandra Gofton 12 Chelsea (MI) 9 22:24.7 109.4 28
85 Olivia Catherman 12 Chelsea (MI) 10 22:25.6 109.3 29
86 Ashton Johnson 10 Adrian (MI) 4 22:27.2 109.2 59 22
87 Bailey Mehki 11 Temperance Bedford (MI) 9 22:29.2 109.0 30
88 Katie Weatherford 10 Tecumseh (MI) 6 22:32.6 108.8 60 23
89 Rebekah Simmons 11 Adrian (MI) 5 22:33.4 108.7 61 24
90 Tess McGuire 12 Saline (MI) 25 22:34.3 108.6 31
91 Natasha Meinecke 12 Saline (MI) 26 22:36.8 108.4 32
92 Cynthia Grammatico 11 Saline (MI) 27 22:37.4 108.4 33
93 Cheyenne Bolton 10 Monroe (CA) 6 22:40.8 108.1 62 36
94 Juliana Boyd 11 Saline (MI) 28 22:43.7 107.9 34
95 Maggie Tarasow 11 Chelsea (MI) 11 22:44.0 107.8 35
96 Carlie Borton 11 Chelsea (MI) 12 22:44.4 107.8 36
97 Amanda Fox 10 Saline (MI) 29 22:46.1 107.7 37
98 Madyson Farris 12 Monroe (CA) 7 22:46.3 107.7 63 38
99 Jamie Johnson 12 Ann Arbor Pioneer (MI) 12 22:46.7 107.6 39
100 Sarah Fitzgerald 10 Temperance Bedford (MI) 10 22:47.8 107.5 40
101 Vanessa Hernandez 10 Adrian (MI) 6 22:48.2 107.5 64 25
102 Victoria Horne-Stewart 12 Ypsilanti Lincoln (MI) 1 22:53.4 107.1 65 26
103 Rachel Pacernick 10 Ann Arbor Pioneer (MI) 13 23:03.4 106.3 41
104 Meredith Peck 9 Ann Arbor Skyline (MI) 9 23:05.3 106.2 42
105 Shuqi Chen 11 Ann Arbor Huron (MI) 4 23:06.0 106.1 66 43
106 Taylor Vaughan 11 Saline (MI) 30 23:07.0 106.1 44
107 Rosie Kendall 9 Saline (MI) 31 23:07.6 106.0 45
108 Sarah Read 10 Dexter (MI) 9 23:07.8 106.0 46
109 Hannah Wilson 10 Saline (MI) 32 23:08.5 105.9 47
110 Hannah Bartoshesky 12 Ann Arbor Huron (MI) 5 23:17.2 105.3 67 48
111 Gavi Forman 10 Ann Arbor Huron (MI) 6 23:20.0 105.1 68 37
112 Kristina Ziemer 11 Tecumseh (MI) 7 23:20.9 105.0 69 27
113 Mackenzie Helpman 10 Temperance Bedford (MI) 11 23:21.3 105.0 49
114 Grace Lopez 10 Dexter (MI) 10 23:21.9 104.9 50
115 Janine Chouinard 12 Ann Arbor Skyline (MI) 10 23:22.5 104.9 51
116 Jada Wimberly 12 Ann Arbor Pioneer (MI) 14 23:23.5 104.8 52
117 Celeste Pan 10 Ann Arbor Huron (MI) 7 23:24.7 104.7 70 53
118 Moriah Torongeau 10 Temperance Bedford (MI) 12 23:25.5 104.7 54
119 Cayla Champion 10 Temperance Bedford (MI) 13 23:26.0 104.6 55
120 Sabina Carty 10 Dexter (MI) 11 23:28.3 104.4 56
121 Tara Van Nieuwstadt 12 Ann Arbor Huron (MI) 8 23:28.7 104.4 38
122 Skyler Hardt 11 Saline (MI) 33 23:32.6 104.1 57
123 Chloe Lange 10 Saline (MI) 34 23:35.1 103.9 58
124 Katie Miller 9 Saline (MI) 35 23:35.4 103.9 59
125 Caroline Wright 12 Ann Arbor Pioneer (MI) 15 23:36.6 103.8 60
126 Rose LaForest 10 Chelsea (MI) 13 23:37.0 103.8 61
127 Nora Dobos 12 Chelsea (MI) 14 23:41.1 103.5 62
128 Ally Hansen 12 Temperance Bedford (MI) 14 23:43.4 103.3 63
129 Devyn O'Piela 10 Dexter (MI) 12 23:45.4 103.2 64
130 Gianna Eisele 11 Dexter (MI) 13 23:46.7 103.1 65
131 Sara Nelson 12 Saline (MI) 36 23:48.9 102.9 66
132 Madeline Bacolor 11 Ann Arbor Pioneer (MI) 16 23:49.4 102.9 67
133 Katerina Tang 11 Ann Arbor Skyline (MI) 11 23:49.8 102.9 68
134 Olivia Habart 10 Saline (MI) 37 23:51.6 102.8 69
135 Baylee Canning 9 Temperance Bedford (MI) 15 23:52.4 102.7 70
136 Sydni Victoria 10 Saline (MI) 38 23:52.7 102.7 71
137 Elizabeth Chang 9 Temperance Bedford (MI) 16 23:56.2 102.4 72
138 Kristina Mardosas 12 Saline (MI) 39 23:57.0 102.4 73
139 Hannah Lopez 12 Adrian (MI) 7 23:57.5 102.3 71 74
140 Heather Brouwer 10 Dexter (MI) 14 23:58.5 102.3 75
141 Helene Roeyert 12 Dexter (MI) 15 23:59.4 102.2 76
142 Erika Bournival 11 Ypsilanti Lincoln (MI) 2 24:01.2 102.1 72 28
143 Mackenzie Kruszka 10 Temperance Bedford (MI) 17 24:01.3 102.1 77
144 Kat Weeden 9 Saline (MI) 40 24:04.3 101.8 78
145 Katherine Eckland 9 Chelsea (MI) 15 24:05.8 101.7 79
146 Ankita Bose 9 Ann Arbor Skyline (MI) 12 24:08.4 101.6 80
147 Bendo Sompa 9 Ann Arbor Pioneer (MI) 17 24:09.9 101.4 81
148 Lauren Wilkie 12 Saline (MI) 41 24:11.4 101.3 82
149 Addie Bird 9 Saline (MI) 42 24:12.5 101.3 83
150 Carmen Parkinson 10 Saline (MI) 43 24:13.7 101.2 84
151 Megan Foley 10 Saline (MI) 44 24:15.1 101.1 85
152 Kirsten Thomas 11 Ypsilanti Lincoln (MI) 3 24:21.9 100.6 73 29
153 Alexandra Haugen 12 Saline (MI) 45 24:22.6 100.6 86
154 Olivia Przeniczny 12 Temperance Bedford (MI) 18 24:22.8 100.6 87
155 Morgan Mydloski 10 Monroe (CA) 8 24:23.1 100.5 88
156 Emily Tyner 11 Ann Arbor Skyline (MI) 13 24:25.5 100.4 89
157 Alice Kadhammer 12 Dexter (MI) 16 24:26.2 100.3 90
158 Kendall Brown 10 Tecumseh (MI) 8 24:30.5 100.0 91
159 Phoebe Johnson 11 Ann Arbor Pioneer (MI) 18 24:33.6 99.8 92
160 Elise Renberg 9 Saline (MI) 46 24:37.7 99.5 93
161 Lydia Savatsky 11 Dexter (MI) 17 24:40.2 99.4 94
162 Sydney Chandler 12 Saline (MI) 47 24:42.1 99.2 95
163 Shea Byrne 10 Temperance Bedford (MI) 19 24:47.6 98.9 96
164 Susanne Sheng 12 Ann Arbor Huron (MI) 9 24:49.0 98.8 97
165 Peyton Castor 11 Saline (MI) 48 24:49.5 98.8 98
166 Grace Czachorski 10 Ypsilanti Lincoln (MI) 4 24:50.2 98.7 74 99
167 Lindsey Murphy 11 Ann Arbor Skyline (MI) 14 24:51.0 98.7 100
168 Allie Waite 12 Temperance Bedford (MI) 20 24:52.2 98.6 101
169 Olivia Dotson 11 Ypsilanti Lincoln (MI) 5 24:59.2 98.1 75 30
170 Chloe Vorias 10 Dexter (MI) 18 25:01.8 97.9 102
171 Megan He 10 Ann Arbor Huron (MI) 10 25:03.9 97.8 103
172 Jenna Kramarczyk 11 Ypsilanti Lincoln (MI) 6 25:05.3 97.7 76 31
173 Sara Eitzman 11 Saline (MI) 49 25:08.1 97.5 104
174 Elyssa Hedrick 12 Tecumseh (MI) 9 25:09.0 97.5 105
175 Xindi Chang 10 Ann Arbor Huron (MI) 11 25:09.3 97.5 106
176 Leah Pifer 10 Chelsea (MI) 16 25:09.7 97.4 107
177 Kelly Adamovicz 10 Saline (MI) 50 25:11.0 97.3 108
178 Morgan Cobb 9 Dexter (MI) 19 25:11.2 97.3 109
179 Rachel Bristow 11 Dexter (MI) 20 25:14.2 97.1 110
180 Morgan Jones 10 Saline (MI) 51 25:14.4 97.1 111
181 Holly Tumbarello 12 Ypsilanti Lincoln (MI) 7 25:15.5 97.1 77 32
182 Madison Bunker 11 Ann Arbor Huron (MI) 12 25:16.2 97.0 112
183 Thao Cao 10 Temperance Bedford (MI) 21 25:17.4 96.9 113
184 Marina Cayen 11 Saline (MI) 52 25:19.7 96.8 114
185 McKayla Hubbard 12 Temperance Bedford (MI) 22 25:20.3 96.8 115
186 Devon Drew 10 Ypsilanti Lincoln (MI) 8 25:23.8 96.5 33
187 Elizabeth Schmidt 11 Ann Arbor Skyline (MI) 15 25:26.2 96.4 116
188 Cate Dombrowski 9 Ann Arbor Pioneer (MI) 19 25:28.6 96.2 117
189 Hannah Lee 10 Ann Arbor Huron (MI) 13 25:30.9 96.1 118
190 Larissa Diarra 10 Ann Arbor Huron (MI) 14 25:37.3 95.7 119
191 Bri Pauli 9 Temperance Bedford (MI) 23 25:41.1 95.4 120
192 Jenny Lee 9 Ann Arbor Huron (MI) 15 25:43.5 95.3 121
193 Jillian Sutter 10 Temperance Bedford (MI) 24 25:45.3 95.2 122
194 Kassidy Konz 11 Adrian (MI) 8 25:49.7 123
195 Jessica Benore 12 Temperance Bedford (MI) 25 25:51.9 94.8 124
196 Emely Focke 10 Ann Arbor Skyline (MI) 16 25:52.3 94.8 125
197 Chrissy Polzin 10 Saline (MI) 53 25:58.9 94.4 126
198 Grace Swanson 12 Ypsilanti Lincoln (MI) 9 26:00.6 94.3 127
199 Rylee Richardson 9 Monroe (CA) 9 26:01.6 94.2 128
200 Claudia Wood 10 Saline (MI) 54 26:01.9 94.2 129
201 Kinsey Smith 11 Temperance Bedford (MI) 26 26:02.9 94.1 130
202 Emily Herrold 10 Dexter (MI) 21 26:04.3 94.0 131
203 Elizabeth Lochocki 10 Ann Arbor Huron (MI) 16 26:08.4 93.8 132
204 Ella Markel 9 Dexter (MI) 22 26:10.1 93.7 133
205 Katie Militello 9 Saline (MI) 55 26:11.8 93.6 134
206 Sullivan Brow 12 Saline (MI) 56 26:12.3 93.6 135
207 Emily Schwarz 12 Chelsea (MI) 17 26:13.2 93.5 136
208 Olivia Sirota 10 Saline (MI) 57 26:16.1 93.3 137
209 Skylar Wolfenbarger 10 Ypsilanti Lincoln (MI) 10 26:17.6 93.2 138
210 Claire Cantelon 11 Ann Arbor Pioneer (MI) 20 26:18.5 93.2 139
211 Mrinalini Iyler 9 Saline (MI) 58 26:18.9 93.2 140
212 Joanna Sheng 9 Ann Arbor Huron (MI) 17 26:19.4 93.1 141
213 Elena Hoerauf 9 Saline (MI) 59 26:20.9 93.1 142
214 Alausi Martinez 9 Ann Arbor Pioneer (MI) 21 26:22.0 93.0 143
215 Ellie Beekman 10 Saline (MI) 60 26:22.2 93.0 144
216 Sydney Matusik 10 Chelsea (MI) 18 26:30.0 92.5 34
217 Jocelyn Berry 11 Adrian (MI) 9 26:33.0 92.3 145
218 Erin Lathrop 10 Saline (MI) 61 26:38.6 92.0 146
219 Erin Evans 11 Saline (MI) 62 26:40.3 91.9 147
220 Hanna Benedek 11 Saline (MI) 63 26:40.8 91.9 148
221 Jessa Davis 11 Saline (MI) 64 26:41.0 91.9 149
222 Natalie McQuade 12 Saline (MI) 65 26:44.2 91.7 150
223 Maggie Roback 11 Adrian (MI) 10 26:45.7 91.6 151
224 Rebecca Crane 12 Temperance Bedford (MI) 27 26:52.9 91.2 152
225 Carmen Giger 10 Ann Arbor Huron (MI) 18 26:54.6 91.1 153
226 Peyton Foster 12 Temperance Bedford (MI) 28 27:00.5 90.8 154
227 Amanda Davidson 9 Ann Arbor Skyline (MI) 17 27:01.5 90.7 155
228 Sarah Franke 12 Saline (MI) 66 27:02.0 90.7 156
229 Sara Abee 9 Saline (MI) 67 27:02.5 90.7 157
230 Lauren Sayre 12 Saline (MI) 68 27:02.9 90.6 158
231 Nadia Lake 11 Monroe (CA) 10 27:11.0 90.2 159
232 Lauren Boettger 11 Saline (MI) 69 27:11.3 90.2 160
233 Angie Petterson 9 Adrian (MI) 11 27:15.5 89.9 161
234 Jane Burnett 10 Saline (MI) 70 27:18.3 89.8 162
235 Katie Jacobsen 11 Saline (MI) 71 27:21.4 89.6 163
236 Katie Joo 9 Ann Arbor Huron (MI) 19 27:23.6 89.5 164
237 Lauren Zukowski 9 Ann Arbor Huron (MI) 20 27:26.2 89.3 165
238 Katheryne Schmidt 10 Ypsilanti Lincoln (MI) 11 27:32.3 89.0 166
239 Hannah Zetterholm 9 Saline (MI) 72 27:35.9 88.8 167
240 Hanami Shiba 12 Ann Arbor Skyline (MI) 18 27:36.7 88.8 168
241 Jenna Boterenbrood 9 Ypsilanti Lincoln (MI) 12 27:37.0 88.8 169
242 Kiersten Garrett 11 Saline (MI) 73 27:40.9 88.6 170
243 Carrie Kosiba 9 Saline (MI) 74 27:41.3 88.5 171
244 Alysa Clouse 10 Monroe (CA) 11 27:41.9 88.5 172
245 Autumn Johnson 11 Chelsea (MI) 19 27:42.3 88.5 173
246 Annie Fuelle 12 Saline (MI) 75 27:43.7 88.4 174
247 Juliette Gimmel 12 Ann Arbor Skyline (MI) 19 27:44.0 88.4 175
248 Kelsey Leppert 12 Saline (MI) 76 28:01.5 87.5 176
249 Allie Hirschl 12 Ann Arbor Skyline (MI) 20 28:03.3 87.4 177
250 Jessica Sorkin 12 Saline (MI) 77 28:04.9 87.3 178
251 Theresa Geyer 9 Dexter (MI) 23 28:08.0 87.1 179
252 Amber Hiney 12 Ann Arbor Pioneer (MI) 22 28:11.3 87.0 180
253 Annie Nelson 10 Saline (MI) 78 28:16.0 86.7 181
254 Jimin Shin 10 Ann Arbor Huron (MI) 21 28:16.7 86.7 182
255 Madison Rishel 12 Saline (MI) 79 28:19.2 86.6 183
256 Anna Laird 10 Saline (MI) 80 28:25.0 86.3 184
257 Gillian Nelson 9 Saline (MI) 81 28:27.7 86.1 185
258 Kenya Leon 11 Adrian (MI) 12 28:28.5 86.1 186
259 Sarah Rock 11 Ypsilanti Lincoln (MI) 13 28:29.3 86.1 187
260 Grace Liu 10 Ann Arbor Huron (MI) 22 28:32.3 85.9 188
261 Katelyn Tayler 11 Monroe (CA) 12 28:34.6 85.8 189
262 Faith Hiatt 10 Adrian (MI) 13 28:36.9 85.7 190
263 Leah Abdallah 9 Saline (MI) 82 28:39.1 85.6 191
264 Naomi Veidlinger 9 Ann Arbor Pioneer (MI) 23 28:41.2 85.5 192
265 Jessica Ding 10 Ann Arbor Huron (MI) 23 28:41.7 85.4 193
266 Karen Ji 11 Ann Arbor Huron (MI) 24 28:44.3 85.3 194
267 Zoe Meyers 10 Tecumseh (MI) 10 28:51.7 84.9 195
268 Cristena Maniaci 11 Monroe (CA) 13 29:33.7 82.9 196
269 Yadira Vega 11 Monroe (CA) 14 29:36.5 82.8 197
270 Elizabeth Sparaco 12 Saline (MI) 83 29:42.6 82.5 198
271 Isabelle Enciso 11 Saline (MI) 84 29:50.9 82.1 199
272 Julia Jaske 12 Saline (MI) 85 29:54.1 82.0 200
273 Lexie Chie 12 Saline (MI) 86 29:56.1 81.9 201
274 Samiksha Prakash 11 Ann Arbor Skyline (MI) 21 29:58.8 81.8 202
275 Rachel McCombs 11 Saline (MI) 87 30:03.6 81.6 203
276 Emily Louria 12 Saline (MI) 88 30:12.9 81.1 204
277 Susana Rincon 10 Temperance Bedford (MI) 29 30:18.4 80.9 205
278 Jenna Cook 12 Saline (MI) 89 30:26.3 80.5 206
279 Haley Pearce 12 Saline (MI) 90 30:26.6 80.5 207
280 Saige Jost 10 Saline (MI) 91 30:34.4 80.2 208
281 Jordyn Banek 10 Monroe (CA) 15 30:58.6 79.1 209
282 Jordan Gakle 12 Saline (MI) 92 31:04.9 78.9 210
283 Elizabeth Weeden 12 Saline (MI) 93 31:11.2 78.6 211
284 Sophia Tiglao 11 Saline (MI) 94 31:14.6 78.5 212
285 Molly Finegan 9 Saline (MI) 95 31:25.7 78.0 213
286 Gwen McCartney 10 Dexter (MI) 24 31:47.6 77.1 214
287 Gabrielle Livorsi 9 Saline (MI) 96 31:49.2 77.1 215
288 Julianne Lewis 11 Adrian (MI) 14 32:14.9 76.0 216
289 Jennifer Green 11 Saline (MI) 97 32:39.7 75.1 217
290 Rose Perkins 10 Tecumseh (MI) 11 33:11.8 73.8 218
291 Karinne Stacey 12 Saline (MI) 98 34:41.5 70.7 219
292 Alexis Aldrich 12 Adrian (MI) 15 35:47.5 220
293 Bella DiPietro 12 Adrian (MI) 16 35:47.8 68.5 221
294 Sara Foley 12 Saline (MI) 99 37:17.9 222
295 Lizzie Kendall 12 Saline (MI) 100 37:19.9 65.7 223
296 Harmony Ford 10 Saline (MI) 101 38:57.5 62.9 224